GRKNM EGKB-EGCJ

Flight info

Callsign GRKNM
Flight time 0h 57m
Altitude 6500
Route BRIDGE BPK EGMJ GAM
Aircraft AC50/L-FRV/C

Departure

Time 2026-04-29 00:12
Airport London Biggin Hill Airport (EGKB)

Arrival

Time 2026-04-29 01:09
Airport Sherburn-in-Elmet Airfield (EGCJ)
Time Latitude Longitude Altitude Speed Heading
2026-04-29 00:04 51.32522 0.03583 603 ft 0 kts 26°
2026-04-29 00:06 51.32503 0.03597 603 ft 15 kts 204°
2026-04-29 00:06 51.32489 0.03506 603 ft 11 kts 317°
2026-04-29 00:06 51.32606 0.03460 603 ft 24 kts
2026-04-29 00:07 51.32809 0.03481 603 ft 33 kts
2026-04-29 00:07 51.33023 0.03540 603 ft 26 kts 34°
2026-04-29 00:07 51.33164 0.03615 603 ft 17 kts
2026-04-29 00:07 51.33248 0.03582 603 ft 9 kts 332°
2026-04-29 00:08 51.33291 0.03566 603 ft 7 kts 15°
2026-04-29 00:08 51.33367 0.03622 603 ft 17 kts 25°
2026-04-29 00:08 51.33483 0.03710 603 ft 16 kts 25°
2026-04-29 00:08 51.33567 0.03772 603 ft 12 kts 25°
2026-04-29 00:09 51.33648 0.03833 603 ft 14 kts 25°
2026-04-29 00:09 51.33724 0.03890 603 ft 8 kts 25°
2026-04-29 00:09 51.33744 0.03897 603 ft 0 kts 357°
2026-04-29 00:10 51.33781 0.03875 603 ft 4 kts 324°
2026-04-29 00:10 51.33809 0.03818 603 ft 6 kts 258°
2026-04-29 00:10 51.33800 0.03801 603 ft 0 kts 208°
2026-04-29 00:11 51.33537 0.03593 603 ft 77 kts 205°
2026-04-29 00:11 51.32224 0.02539 1024 ft 121 kts 207°
2026-04-29 00:12 51.31446 0.01899 1303 ft 130 kts 207°
2026-04-29 00:12 51.30614 0.01217 1574 ft 138 kts 208°
2026-04-29 00:12 51.29707 0.00604 1837 ft 146 kts 193°
2026-04-29 00:12 51.28717 0.00910 2084 ft 152 kts 144°
2026-04-29 00:13 51.28087 0.02255 2250 ft 159 kts 111°
2026-04-29 00:13 51.27809 0.04031 2309 ft 171 kts 95°
2026-04-29 00:13 51.27829 0.05988 2311 ft 180 kts 80°
2026-04-29 00:13 51.28102 0.07980 2307 ft 186 kts 71°
2026-04-29 00:14 51.28609 0.09876 2305 ft 189 kts 61°
2026-04-29 00:14 51.29239 0.11747 2303 ft 192 kts 59°
2026-04-29 00:14 51.29950 0.13560 2301 ft 192 kts 53°
2026-04-29 00:14 51.30818 0.15189 2300 ft 192 kts 42°
2026-04-29 00:15 51.31876 0.16442 2302 ft 191 kts 29°
2026-04-29 00:15 51.33062 0.17420 2302 ft 191 kts 25°
2026-04-29 00:15 51.34259 0.18356 2300 ft 191 kts 24°
2026-04-29 00:15 51.35459 0.19289 2300 ft 191 kts 24°
2026-04-29 00:16 51.36658 0.20221 2300 ft 192 kts 24°
2026-04-29 00:16 51.37862 0.21156 2300 ft 192 kts 24°
2026-04-29 00:16 51.39049 0.22078 2300 ft 192 kts 24°
2026-04-29 00:16 51.40249 0.23011 2300 ft 192 kts 24°
2026-04-29 00:17 51.41460 0.23911 2300 ft 191 kts 22°
2026-04-29 00:17 51.42683 0.24758 2300 ft 191 kts 21°
2026-04-29 00:17 51.43911 0.25592 2300 ft 191 kts 21°
2026-04-29 00:17 51.45127 0.26408 2300 ft 191 kts 20°
2026-04-29 00:18 51.46377 0.27136 2300 ft 191 kts 17°
2026-04-29 00:18 51.47651 0.27766 2300 ft 191 kts 13°
2026-04-29 00:18 51.48948 0.28209 2300 ft 190 kts
2026-04-29 00:18 51.50260 0.28508 2300 ft 190 kts
2026-04-29 00:19 51.51558 0.28760 2300 ft 190 kts
2026-04-29 00:19 51.52876 0.29006 2300 ft 190 kts
2026-04-29 00:19 51.54195 0.29229 2300 ft 190 kts
2026-04-29 00:19 51.55511 0.29374 2296 ft 189 kts 355°
2026-04-29 00:20 51.56775 0.28811 2305 ft 188 kts 337°
2026-04-29 00:20 51.57911 0.27815 2303 ft 188 kts 326°
2026-04-29 00:20 51.58842 0.26335 2304 ft 189 kts 308°
2026-04-29 00:20 51.59538 0.24544 2302 ft 190 kts 297°
2026-04-29 00:21 51.59990 0.22550 2302 ft 190 kts 288°
2026-04-29 00:21 51.60327 0.20486 2301 ft 191 kts 285°
2026-04-29 00:21 51.60531 0.19111 2300 ft 191 kts 284°
2026-04-29 00:21 51.60831 0.17031 2300 ft 191 kts 284°
2026-04-29 00:22 51.61225 0.14268 2300 ft 191 kts 284°
2026-04-29 00:22 51.61521 0.12180 2300 ft 191 kts 284°
2026-04-29 00:22 51.61717 0.10799 2300 ft 191 kts 284°
2026-04-29 00:22 51.62108 0.08038 2300 ft 191 kts 284°
2026-04-29 00:23 51.62308 0.06628 2300 ft 191 kts 284°
2026-04-29 00:23 51.62599 0.04568 2300 ft 191 kts 284°
2026-04-29 00:23 51.62895 0.02478 2300 ft 191 kts 284°
2026-04-29 00:23 51.63424 0.00545 2298 ft 189 kts 308°
2026-04-29 00:24 51.64362 -0.00921 2305 ft 188 kts 321°
2026-04-29 00:24 51.65395 -0.02185 2301 ft 189 kts 324°
2026-04-29 00:24 51.66460 -0.03438 2300 ft 189 kts 321°
2026-04-29 00:24 51.67442 -0.04849 2301 ft 189 kts 317°
2026-04-29 00:25 51.68384 -0.06334 2300 ft 189 kts 315°
2026-04-29 00:25 51.69301 -0.07815 2300 ft 189 kts 315°
2026-04-29 00:25 51.70261 -0.09266 2299 ft 189 kts 322°
2026-04-29 00:25 51.71439 -0.10169 2303 ft 189 kts 346°
2026-04-29 00:26 51.72737 -0.10536 2304 ft 189 kts 352°
2026-04-29 00:26 51.74052 -0.10752 2301 ft 189 kts 354°
2026-04-29 00:26 51.75355 -0.10918 2300 ft 190 kts 355°
2026-04-29 00:26 51.76675 -0.11052 2300 ft 190 kts 356°
2026-04-29 00:27 51.77998 -0.11143 2300 ft 190 kts 357°
2026-04-29 00:27 51.79301 -0.11220 2300 ft 190 kts 357°
2026-04-29 00:27 51.80623 -0.11295 2300 ft 190 kts 357°
2026-04-29 00:27 51.81945 -0.11370 2300 ft 190 kts 357°
2026-04-29 00:28 51.83266 -0.11444 2300 ft 190 kts 357°
2026-04-29 00:28 51.84588 -0.11539 2300 ft 190 kts 356°
2026-04-29 00:28 51.85905 -0.11673 2300 ft 190 kts 355°
2026-04-29 00:28 51.87206 -0.11840 2300 ft 190 kts 354°
2026-04-29 00:29 51.88524 -0.12031 2300 ft 190 kts 354°
2026-04-29 00:29 51.89839 -0.12249 2300 ft 190 kts 353°
2026-04-29 00:29 51.91153 -0.12476 2300 ft 190 kts 353°
2026-04-29 00:29 51.92455 -0.12704 2300 ft 190 kts 353°
2026-04-29 00:30 51.93771 -0.12935 2300 ft 190 kts 353°
2026-04-29 00:30 51.95089 -0.13168 2300 ft 190 kts 353°
2026-04-29 00:30 51.96387 -0.13396 2300 ft 190 kts 353°
2026-04-29 00:30 51.97716 -0.13631 2300 ft 190 kts 353°
2026-04-29 00:31 51.99016 -0.13860 2300 ft 190 kts 353°
2026-04-29 00:31 52.00333 -0.14092 2305 ft 189 kts 353°
2026-04-29 00:31 52.01621 -0.14318 2464 ft 182 kts 353°
2026-04-29 00:31 52.02847 -0.14509 2631 ft 177 kts 354°
2026-04-29 00:32 52.04068 -0.14614 2802 ft 174 kts 356°
2026-04-29 00:32 52.05270 -0.14675 2974 ft 171 kts 357°
2026-04-29 00:32 52.06461 -0.14720 3148 ft 170 kts 357°
2026-04-29 00:32 52.07639 -0.14756 3321 ft 169 kts 357°
2026-04-29 00:33 52.08801 -0.14783 3491 ft 168 kts 357°
2026-04-29 00:33 52.09990 -0.14807 3723 ft 175 kts 356°
2026-04-29 00:33 52.11248 -0.14823 3849 ft 180 kts 357°
2026-04-29 00:33 52.12475 -0.14830 4020 ft 176 kts 357°
2026-04-29 00:34 52.13698 -0.14830 4192 ft 174 kts 356°
2026-04-29 00:34 52.14909 -0.14880 4354 ft 173 kts 354°
2026-04-29 00:34 52.16113 -0.15020 4465 ft 175 kts 351°
2026-04-29 00:34 52.17326 -0.15276 4498 ft 180 kts 348°
2026-04-29 00:35 52.18583 -0.15609 4503 ft 184 kts 347°
2026-04-29 00:35 52.19858 -0.15970 4502 ft 187 kts 346°
2026-04-29 00:35 52.21123 -0.16379 4501 ft 189 kts 345°
2026-04-29 00:35 52.22422 -0.16822 4501 ft 190 kts 345°
2026-04-29 00:36 52.23700 -0.17261 4644 ft 183 kts 345°
2026-04-29 00:36 52.24921 -0.17672 4812 ft 179 kts 345°
2026-04-29 00:36 52.26138 -0.18072 4984 ft 176 kts 345°
2026-04-29 00:36 52.27338 -0.18456 5156 ft 174 kts 345°
2026-04-29 00:37 52.28528 -0.18827 5329 ft 173 kts 345°
2026-04-29 00:37 52.29713 -0.19186 5503 ft 173 kts 345°
2026-04-29 00:37 52.30898 -0.19537 5676 ft 173 kts 344°
2026-04-29 00:37 52.32055 -0.20031 5852 ft 171 kts 338°
2026-04-29 00:38 52.33187 -0.20635 6027 ft 171 kts 336°
2026-04-29 00:38 52.34305 -0.21250 6199 ft 172 kts 336°
2026-04-29 00:38 52.35444 -0.21873 6362 ft 173 kts 336°
2026-04-29 00:38 52.36601 -0.22513 6469 ft 177 kts 335°
2026-04-29 00:39 52.37788 -0.23193 6499 ft 184 kts 334°
2026-04-29 00:39 52.39002 -0.23946 6503 ft 188 kts 333°
2026-04-29 00:39 52.40210 -0.24759 6502 ft 191 kts 332°
2026-04-29 00:39 52.41443 -0.25637 6502 ft 193 kts 331°
2026-04-29 00:40 52.42678 -0.26531 6501 ft 194 kts 331°
2026-04-29 00:40 52.43905 -0.27423 6501 ft 195 kts 331°
2026-04-29 00:40 52.45144 -0.28332 6500 ft 195 kts 330°
2026-04-29 00:40 52.46375 -0.29286 6500 ft 195 kts 329°
2026-04-29 00:41 52.47583 -0.30255 6500 ft 195 kts 328°
2026-04-29 00:41 52.48797 -0.31262 6500 ft 195 kts 328°
2026-04-29 00:41 52.50007 -0.32277 6500 ft 195 kts 328°
2026-04-29 00:41 52.51214 -0.33292 6500 ft 195 kts 328°
2026-04-29 00:42 52.52411 -0.34301 6500 ft 195 kts 328°
2026-04-29 00:42 52.53620 -0.35320 6500 ft 195 kts 328°
2026-04-29 00:42 52.54829 -0.36340 6500 ft 195 kts 328°
2026-04-29 00:42 52.56039 -0.37362 6500 ft 195 kts 328°
2026-04-29 00:43 52.57249 -0.38384 6500 ft 195 kts 328°
2026-04-29 00:43 52.58441 -0.39391 6500 ft 195 kts 328°
2026-04-29 00:43 52.59648 -0.40412 6500 ft 195 kts 328°
2026-04-29 00:43 52.60858 -0.41435 6500 ft 195 kts 328°
2026-04-29 00:44 52.62066 -0.42459 6500 ft 195 kts 328°
2026-04-29 00:44 52.63274 -0.43482 6500 ft 195 kts 328°
2026-04-29 00:44 52.64475 -0.44499 6548 ft 192 kts 328°
2026-04-29 00:44 52.65650 -0.45486 6718 ft 186 kts 328°
2026-04-29 00:45 52.66769 -0.46417 6957 ft 178 kts 328°
2026-04-29 00:45 52.67854 -0.47310 7247 ft 171 kts 328°
2026-04-29 00:45 52.68903 -0.48164 7539 ft 166 kts 328°
2026-04-29 00:45 52.69927 -0.48992 7833 ft 162 kts 328°
2026-04-29 00:46 52.70936 -0.49803 8129 ft 160 kts 328°
2026-04-29 00:46 52.71943 -0.50610 8361 ft 163 kts 328°
2026-04-29 00:46 52.72974 -0.51446 8473 ft 171 kts 328°
2026-04-29 00:46 52.74073 -0.52348 8503 ft 180 kts 328°
2026-04-29 00:47 52.75224 -0.53304 8505 ft 188 kts 328°
2026-04-29 00:47 52.76401 -0.54289 8504 ft 192 kts 328°
2026-04-29 00:47 52.77593 -0.55288 8502 ft 195 kts 328°
2026-04-29 00:47 52.78826 -0.56271 8501 ft 197 kts 330°
2026-04-29 00:48 52.80081 -0.57214 8501 ft 198 kts 330°
2026-04-29 00:48 52.81332 -0.58139 8500 ft 199 kts 330°
2026-04-29 00:48 52.82599 -0.59073 8500 ft 199 kts 331°
2026-04-29 00:48 52.83872 -0.60010 8500 ft 199 kts 331°
2026-04-29 00:49 52.85140 -0.60944 8500 ft 199 kts 331°
2026-04-29 00:49 52.86408 -0.61879 8500 ft 199 kts 331°
2026-04-29 00:49 52.87665 -0.62805 8500 ft 199 kts 331°
2026-04-29 00:49 52.88938 -0.63745 8500 ft 199 kts 330°
2026-04-29 00:50 52.90210 -0.64684 8500 ft 199 kts 330°
2026-04-29 00:50 52.91463 -0.65610 8500 ft 199 kts 330°
2026-04-29 00:50 52.92734 -0.66549 8500 ft 199 kts 330°
2026-04-29 00:50 52.94005 -0.67489 8500 ft 199 kts 330°
2026-04-29 00:51 52.95273 -0.68427 8500 ft 199 kts 330°
2026-04-29 00:51 52.96544 -0.69368 8500 ft 199 kts 330°
2026-04-29 00:51 52.97811 -0.70306 8500 ft 199 kts 330°
2026-04-29 00:51 52.99081 -0.71248 8500 ft 199 kts 330°
2026-04-29 00:52 53.00338 -0.72179 8500 ft 199 kts 330°
2026-04-29 00:52 53.01609 -0.73123 8500 ft 199 kts 330°
2026-04-29 00:52 53.02876 -0.74063 8500 ft 199 kts 330°
2026-04-29 00:52 53.04148 -0.75008 8500 ft 199 kts 330°
2026-04-29 00:53 53.05404 -0.75941 8500 ft 199 kts 330°
2026-04-29 00:53 53.06673 -0.76885 8500 ft 199 kts 330°
2026-04-29 00:53 53.07939 -0.77827 8500 ft 199 kts 330°
2026-04-29 00:53 53.09209 -0.78772 8500 ft 199 kts 330°
2026-04-29 00:54 53.10466 -0.79709 8500 ft 199 kts 330°
2026-04-29 00:54 53.11736 -0.80655 8500 ft 199 kts 330°
2026-04-29 00:54 53.13004 -0.81601 8500 ft 199 kts 330°
2026-04-29 00:54 53.14277 -0.82551 8500 ft 199 kts 330°
2026-04-29 00:55 53.15543 -0.83496 8500 ft 199 kts 330°
2026-04-29 00:55 53.16798 -0.84434 8500 ft 199 kts 330°
2026-04-29 00:55 53.18065 -0.85380 8500 ft 199 kts 330°
2026-04-29 00:55 53.19333 -0.86329 8500 ft 199 kts 330°
2026-04-29 00:56 53.20601 -0.87277 8500 ft 199 kts 330°
2026-04-29 00:56 53.21856 -0.88217 8491 ft 200 kts 330°
2026-04-29 00:56 53.23148 -0.89190 8323 ft 206 kts 330°
2026-04-29 00:56 53.24473 -0.90194 8150 ft 210 kts 330°
2026-04-29 00:57 53.25809 -0.91211 7976 ft 212 kts 330°
2026-04-29 00:57 53.27162 -0.92243 7801 ft 213 kts 330°
2026-04-29 00:57 53.28499 -0.93266 7629 ft 214 kts 330°
2026-04-29 00:57 53.29854 -0.94295 7454 ft 214 kts 332°
2026-04-29 00:58 53.31262 -0.95141 7280 ft 216 kts 337°
2026-04-29 00:58 53.32704 -0.95857 7105 ft 217 kts 340°
2026-04-29 00:58 53.34190 -0.96346 6906 ft 219 kts 346°
2026-04-29 00:58 53.35722 -0.96696 6632 ft 223 kts 348°
2026-04-29 00:59 53.37246 -0.97003 6363 ft 224 kts 348°
2026-04-29 00:59 53.38818 -0.97315 6123 ft 230 kts 349°
2026-04-29 00:59 53.40410 -0.97643 5831 ft 228 kts 348°
2026-04-29 00:59 53.41974 -0.97976 5578 ft 224 kts 349°
2026-04-29 01:00 53.43511 -0.98312 5327 ft 221 kts 349°
2026-04-29 01:00 53.45010 -0.98651 5080 ft 219 kts 349°
2026-04-29 01:00 53.46522 -0.99011 4828 ft 217 kts 348°
2026-04-29 01:00 53.48010 -0.99404 4635 ft 214 kts 348°
2026-04-29 01:01 53.49466 -0.99807 4469 ft 210 kts 348°
2026-04-29 01:01 53.50908 -1.00217 4304 ft 208 kts 348°
2026-04-29 01:01 53.52317 -1.00627 4142 ft 207 kts 348°
2026-04-29 01:01 53.53733 -1.01048 3978 ft 206 kts 348°
2026-04-29 01:02 53.55143 -1.01476 3814 ft 206 kts 348°
2026-04-29 01:02 53.56553 -1.01911 3650 ft 205 kts 347°
2026-04-29 01:02 53.57955 -1.02352 3486 ft 202 kts 347°
2026-04-29 01:02 53.59292 -1.02777 3315 ft 190 kts 347°
2026-04-29 01:03 53.60553 -1.03182 3152 ft 184 kts 347°
2026-04-29 01:03 53.61793 -1.03585 3037 ft 178 kts 348°
2026-04-29 01:03 53.62988 -1.03955 3001 ft 171 kts 348°
2026-04-29 01:03 53.64149 -1.04302 2948 ft 168 kts 348°
2026-04-29 01:04 53.65275 -1.04633 2881 ft 161 kts 349°
2026-04-29 01:04 53.66372 -1.04952 2803 ft 157 kts 349°
2026-04-29 01:04 53.67434 -1.05213 2722 ft 155 kts 351°
2026-04-29 01:04 53.68480 -1.05439 2758 ft 147 kts 351°
2026-04-29 01:05 53.69496 -1.05641 2748 ft 146 kts 352°
2026-04-29 01:05 53.70483 -1.05827 2802 ft 141 kts 352°
2026-04-29 01:05 53.71464 -1.06006 2812 ft 141 kts 352°
2026-04-29 01:05 53.72422 -1.06222 2878 ft 136 kts 347°
2026-04-29 01:06 53.73329 -1.06637 2879 ft 137 kts 340°
2026-04-29 01:06 53.74223 -1.07227 2864 ft 136 kts 335°
2026-04-29 01:06 53.75057 -1.07930 2778 ft 133 kts 331°
2026-04-29 01:06 53.75856 -1.08759 2553 ft 140 kts 324°
2026-04-29 01:07 53.76625 -1.09768 2427 ft 137 kts 320°
2026-04-29 01:07 53.77244 -1.10974 2267 ft 135 kts 303°
2026-04-29 01:07 53.77558 -1.12315 2122 ft 114 kts 284°
2026-04-29 01:07 53.77671 -1.13658 1757 ft 117 kts 277°
2026-04-29 01:08 53.77724 -1.14997 1452 ft 108 kts 275°
2026-04-29 01:08 53.77761 -1.16206 1167 ft 102 kts 275°
2026-04-29 01:08 53.77833 -1.17401 863 ft 97 kts 279°
2026-04-29 01:08 53.77948 -1.18463 612 ft 93 kts 282°
2026-04-29 01:09 53.78090 -1.19464 390 ft 82 kts 284°
2026-04-29 01:09 53.78223 -1.20382 164 ft 76 kts 283°
2026-04-29 01:09 53.78339 -1.21186 32 ft 63 kts 284°
2026-04-29 01:09 53.78395 -1.21579 31 ft 16 kts 284°
2026-04-29 01:10 53.78421 -1.21716 31 ft 6 kts 328°
2026-04-29 01:10 53.78449 -1.21663 31 ft 12 kts 100°
2026-04-29 01:10 53.78432 -1.21553 31 ft 14 kts 105°
2026-04-29 01:10 53.78412 -1.21419 31 ft 11 kts 104°
2026-04-29 01:11 53.78418 -1.21334 31 ft 10 kts 17°
2026-04-29 01:11 53.78480 -1.21323 31 ft 10 kts
2026-04-29 01:11 53.78530 -1.21310 31 ft 12 kts
2026-04-29 01:11 53.78647 -1.21281 31 ft 11 kts 14°
2026-04-29 01:12 53.78649 -1.21241 31 ft 0 kts 192°